Weather History for LLBG - February, 2014

Change the Weather History Date:

Monday, February 10, 2014

  Actual Average Record
Temperature  
Mean Temperature 54 °F -  
Max Temperature 67 °F 64 °F 69 °F (1999)
Min Temperature 40 °F 49 °F 39 °F (1997)
Degree Days  
Heating Degree Days 12    
Growing Degree Days 4 (Base 50)    
Moisture  
Dew Point 38 °F    
Average Humidity 52    
Maximum Humidity 71    
Minimum Humidity 26    
Precipitation  
Precipitation 0.00 in - - ()
Sea Level Pressure  
Sea Level Pressure 30.14 in    
Wind  
Wind Speed 4 mph ()    
Max Wind Speed 14 mph    
Max Gust Speed -    
Visibility 6.0 miles    
Events      
Averages and records for this station are not official NWS values.
T = Trace of Precipitation, MM = Missing Value Source: Averaged Metar Reports

Daily Weather History Graph

Daily Weather History Graph

Search for Another Location

Airport or City:

Trip Planner

Search our weather history database for the weather conditions in past years. The results will help you decide how hot, cold, wet, or windy it might be!

Date:

Astronomy

Feb. 10, 2014 Rise Set
Actual Time 6:27 AM IST 5:22 PM IST
Civil Twilight 6:02 AM IST 5:47 PM IST
Nautical Twilight 5:33 AM IST 6:16 PM IST
Astronomical Twilight 5:04 AM IST 6:44 PM IST
Moon 1:39 PM IST (2/10) 2:58 AM IST (2/10)
Length of Visible Light 11h 45m
Length of Day
10h 54m
Waxing Gibbous, 82% of the Moon is Illuminated
Feb 10
Waxing Gibbous
Feb 15
Full
Feb 22
Last Quarter
Mar 1
New
Mar 8
First Quarter

Hourly Weather History & Observations

Time (IST) Temp. Windchill Dew Point Humidity Pressure Visibility Wind Dir Wind Speed Gust Speed Precip Events Conditions
12:20 AM 46.4 °F - 33.8 °F 62% 30.15 in - Variable 1.2 mph - N/A   Clear
12:50 AM 44.6 °F - 33.8 °F 66% 30.15 in - Variable 1.2 mph - N/A   Clear
1:20 AM 46.4 °F 45.2 °F 33.8 °F 62% 30.15 in - Variable 3.5 mph - N/A   Clear
1:50 AM 46.4 °F 44.3 °F 33.8 °F 62% 30.15 in - East 4.6 mph - N/A   Clear
2:00 AM 46 °F - 34 °F 51% 30.16 in 6 mi 3.5 mph - -  
2:20 AM 44.6 °F 43.1 °F 32.0 °F 61% 30.12 in - Variable 3.5 mph - N/A   Clear
2:50 AM 44.6 °F - 32.0 °F 61% 30.12 in - Variable 2.3 mph - N/A   Clear
3:20 AM 42.8 °F - 32.0 °F 66% 30.12 in - Calm Calm - N/A   Clear
3:50 AM 42.8 °F - 33.8 °F 70% 30.12 in - Variable 2.3 mph - N/A   Clear
4:20 AM 42.8 °F 41.1 °F 32.0 °F 66% 30.12 in - Variable 3.5 mph - N/A   Clear
4:50 AM 42.8 °F - 32.0 °F 66% 30.12 in - Variable 1.2 mph - N/A   Clear
5:00 AM 43 °F - 31 °F 52% 30.14 in 6 mi 1.2 mph - -  
5:20 AM 41.0 °F - 32.0 °F 70% 30.12 in - Variable 1.2 mph - N/A   Clear
5:50 AM 41.0 °F - 30.2 °F 65% 30.15 in - Variable 2.3 mph - N/A   Clear
6:20 AM 44.6 °F 43.1 °F 32.0 °F 61% 30.15 in - Variable 3.5 mph - N/A   Clear
6:50 AM 42.8 °F - 30.2 °F 61% 30.15 in - Calm Calm - N/A   Clear
7:20 AM 44.6 °F 43.1 °F 30.2 °F 57% 30.15 in - Variable 3.5 mph - N/A   Clear
7:50 AM 46.4 °F - 32.0 °F 57% 30.15 in - Variable 2.3 mph - N/A   Clear
8:00 AM 47 °F - 31 °F 43% 30.17 in 6 mi 1.2 mph - -  
8:20 AM 50.0 °F - 32.0 °F 50% 30.15 in - Variable 2.3 mph - N/A   Clear
8:50 AM 55.4 °F - 33.8 °F 44% 30.15 in - Variable 2.3 mph - N/A   Clear
9:20 AM 59.0 °F - 35.6 °F 42% 30.15 in - Variable 3.5 mph - N/A   Clear
9:50 AM 62.6 °F - 39.2 °F 42% 30.15 in - Variable 2.3 mph - N/A   Clear
10:20 AM 64.4 °F - 41.0 °F 42% 30.15 in - Variable 1.2 mph - N/A   Clear
10:50 AM 64.4 °F - 39.2 °F 40% 30.15 in - WNW 5.8 mph - N/A   Clear
11:00 AM 65 °F - 40 °F 28% 30.15 in 6 mi WNW 5.8 mph - -  
11:20 AM 66.2 °F - 39.2 °F 37% 30.15 in - WNW 8.1 mph - N/A   Clear
11:50 AM 66.2 °F - 41.0 °F 40% 30.12 in - West 9.2 mph - N/A   Clear
12:20 PM 66.2 °F - 41.0 °F 40% 30.12 in - WNW 12.7 mph - N/A   Clear
12:50 PM 66.2 °F - 41.0 °F 40% 30.12 in - WNW 12.7 mph - N/A   Clear
1:20 PM 66.2 °F - 39.2 °F 37% 30.12 in - WNW 13.8 mph - N/A   Clear
1:50 PM 66.2 °F - 39.2 °F 37% 30.12 in - WNW 11.5 mph - N/A   Clear
2:00 PM 67 °F - 40 °F 26% 30.14 in 6 mi WNW 11.5 mph - -  
2:20 PM 66.2 °F - 39.2 °F 37% 30.12 in - NW 10.4 mph - N/A   Clear
2:50 PM 68.0 °F - 37.4 °F 33% 30.12 in - NW 10.4 mph - N/A   Clear
3:20 PM 66.2 °F - 35.6 °F 32% 30.12 in - NW 10.4 mph - N/A   Clear
3:50 PM 66.2 °F - 35.6 °F 32% 30.12 in - NNW 8.1 mph - N/A   Clear
4:20 PM 66.2 °F - 39.2 °F 37% 30.12 in - NNW 8.1 mph - N/A   Clear
4:50 PM 64.4 °F - 42.8 °F 45% 30.12 in - NNW 8.1 mph - N/A   Clear
5:00 PM 65 °F - 41 °F 30% 30.13 in 6 mi WNW 8.1 mph - -  
5:20 PM 62.6 °F - 42.8 °F 48% 30.12 in - NNW 6.9 mph - N/A   Clear
5:50 PM 60.8 °F - 44.6 °F 55% 30.12 in - NNW 8.1 mph - N/A   Clear
6:20 PM 60.8 °F - 44.6 °F 55% 30.12 in - North 6.9 mph - N/A   Clear
6:50 PM 59.0 °F - 46.4 °F 63% 30.15 in - Variable 2.3 mph - N/A   Clear
7:20 PM 57.2 °F - 44.6 °F 63% 30.15 in - North 4.6 mph - N/A   Clear
7:50 PM 57.2 °F - 44.6 °F 63% 30.15 in - Variable 3.5 mph - N/A   Clear
8:00 PM 56 °F - 44 °F 54% 30.18 in 6 mi 3.5 mph - -  
8:20 PM 55.4 °F - 42.8 °F 63% 30.18 in - ESE 4.6 mph - N/A   Clear
8:50 PM 55.4 °F - 42.8 °F 63% 30.18 in - Variable 2.3 mph - N/A   Clear
9:20 PM 51.8 °F - 41.0 °F 67% 30.18 in - Variable 2.3 mph - N/A   Clear
9:50 PM 51.8 °F - 41.0 °F 67% 30.18 in - Variable 3.5 mph - N/A   Clear
10:20 PM 51.8 °F - 41.0 °F 67% 30.18 in - ESE 4.6 mph - N/A   Clear
10:50 PM 51.8 °F - 41.0 °F 67% 30.18 in - Variable 3.5 mph - N/A   Clear
11:00 PM 52 °F - 41 °F 56% 30.20 in 6 mi 3.5 mph - -  
11:20 PM 51.8 °F - 41.0 °F 67% 30.18 in - Variable 3.5 mph - N/A   Clear
11:50 PM 50.0 °F - 41.0 °F 71% 30.18 in - SE 4.6 mph - N/A   Clear